Time,TemperatureF,DewpointF,PressureIn,WindDirection,WindDirectionDegrees,WindSpeedMPH,WindSpeedGustMPH,Humidity,HourlyPrecipIn,Conditions,Clouds,dailyrainin,SoftwareType,DateUTC
2013-07-30 00:03:00,65.3,60.0,29.16,North,0,1.1,1.1,83,0.00,CLR,,0.00,WeatherDisplay:10.37,2013-07-30 05:03:00,
2013-07-30 00:08:00,65.3,60.0,29.16,North,0,1.1,1.1,83,0.00,CLR,,0.00,WeatherDisplay:10.37,2013-07-30 05:08:00,
2013-07-30 00:13:00,65.3,60.0,29.16,North,0,2.3,2.3,83,0.00,CLR,,0.00,WeatherDisplay:10.37,2013-07-30 05:13:00,
2013-07-30 00:18:00,65.3,60.0,29.16,North,0,1.1,1.1,83,0.00,CLR,,0.00,WeatherDisplay:10.37,2013-07-30 05:18:00,
2013-07-30 00:23:00,65.3,60.0,29.16,North,0,2.3,2.3,83,0.00,CLR,,0.00,WeatherDisplay:10.37,2013-07-30 05:23:00,
2013-07-30 00:28:00,65.3,60.3,29.16,ENE,68,2.3,2.3,84,0.00,CLR,,0.00,WeatherDisplay:10.37,2013-07-30 05:28:00,
2013-07-30 00:33:00,65.3,60.3,29.16,North,0,1.1,0.0,84,0.00,CLR,,0.00,WeatherDisplay:10.37,2013-07-30 05:33:00,
2013-07-30 00:38:00,65.3,60.3,29.16,North,1,2.3,2.3,84,0.00,CLR,,0.00,WeatherDisplay:10.37,2013-07-30 05:38:00,
2013-07-30 00:43:00,65.3,60.3,29.15,North,0,1.1,0.0,84,0.00,CLR,,0.00,WeatherDisplay:10.37,2013-07-30 05:43:00,
2013-07-30 00:48:00,65.5,60.5,29.15,ENE,68,1.1,1.1,84,0.00,CLR,,0.00,WeatherDisplay:10.37,2013-07-30 05:48:00,
2013-07-30 00:53:00,65.7,61.0,29.15,ENE,68,2.3,2.3,85,0.00,CLR,,0.00,WeatherDisplay:10.37,2013-07-30 05:53:00,
2013-07-30 00:58:00,66.0,61.4,29.15,North,0,1.6,1.6,85,0.00,CLR,,0.00,WeatherDisplay:10.37,2013-07-30 05:58:00,
2013-07-30 01:03:00,66.0,61.0,29.15,North,0,2.3,2.3,84,0.00,CLR,,0.00,WeatherDisplay:10.37,2013-07-30 06:03:00,
2013-07-30 01:08:00,66.2,60.9,29.15,North,0,2.3,2.3,83,0.00,CLR,,0.00,WeatherDisplay:10.37,2013-07-30 06:08:00,
2013-07-30 01:13:00,66.2,60.9,29.14,ENE,68,2.3,2.3,83,0.00,CLR,,0.00,WeatherDisplay:10.37,2013-07-30 06:13:00,
2013-07-30 01:18:00,66.6,61.2,29.14,SE,135,3.5,3.5,83,0.00,CLR,,0.00,WeatherDisplay:10.37,2013-07-30 06:18:00,
2013-07-30 01:23:00,64.6,59.0,29.14,SE,135,2.3,0.0,82,0.00,CLR,,0.00,WeatherDisplay:10.37,2013-07-30 06:23:00,
2013-07-30 01:28:00,64.4,58.8,29.15,SE,135,2.3,2.3,82,0.00,CLR,,0.00,WeatherDisplay:10.37,2013-07-30 06:28:00,
2013-07-30 01:33:00,66.7,61.1,29.14,North,0,1.6,1.6,82,0.00,CLR,,0.00,WeatherDisplay:10.37,2013-07-30 06:33:00,
2013-07-30 01:38:00,66.2,60.5,29.14,South,180,1.1,0.0,82,0.00,CLR,,0.00,WeatherDisplay:10.37,2013-07-30 06:38:00,
2013-07-30 01:43:00,66.0,60.4,29.14,North,0,1.1,1.1,82,0.00,CLR,,0.00,WeatherDisplay:10.37,2013-07-30 06:43:00,
2013-07-30 01:48:00,65.7,60.4,29.14,North,0,1.1,1.1,83,0.00,CLR,,0.00,WeatherDisplay:10.37,2013-07-30 06:48:00,
2013-07-30 01:53:00,65.7,60.7,29.14,North,0,1.1,1.1,84,0.00,CLR,,0.00,WeatherDisplay:10.37,2013-07-30 06:53:00,
2013-07-30 01:58:00,65.5,60.5,29.14,North,0,2.3,2.3,84,0.00,CLR,,0.00,WeatherDisplay:10.37,2013-07-30 06:58:00,
2013-07-30 02:03:00,65.5,60.5,29.14,SE,135,1.1,0.0,84,0.00,CLR,,0.00,WeatherDisplay:10.37,2013-07-30 07:03:00,
2013-07-30 02:08:00,65.5,60.5,29.14,South,180,3.5,0.0,84,0.00,CLR,,0.00,WeatherDisplay:10.37,2013-07-30 07:08:00,
2013-07-30 02:13:00,66.2,61.6,29.14,SE,135,5.8,5.8,85,0.00,CLR,,0.00,WeatherDisplay:10.37,2013-07-30 07:13:00,
2013-07-30 02:18:00,65.3,60.0,29.13,South,180,5.8,5.8,83,0.00,CLR,,0.00,WeatherDisplay:10.37,2013-07-30 07:18:00,
2013-07-30 02:23:00,66.0,60.0,29.13,SE,135,5.8,5.8,81,0.00,CLR,,0.00,WeatherDisplay:10.37,2013-07-30 07:23:00,
2013-07-30 02:28:00,66.0,59.7,29.13,SE,135,5.8,5.8,80,0.00,CLR,,0.00,WeatherDisplay:10.37,2013-07-30 07:28:00,
2013-07-30 02:33:00,66.2,60.2,29.13,SE,135,5.8,5.8,81,0.00,CLR,,0.00,WeatherDisplay:10.37,2013-07-30 07:33:00,
2013-07-30 02:38:00,66.2,60.5,29.13,SW,225,4.6,4.6,82,0.00,CLR,,0.00,WeatherDisplay:10.37,2013-07-30 07:38:00,
2013-07-30 02:43:00,66.0,60.0,29.14,East,90,3.5,3.5,81,0.00,CLR,,0.00,WeatherDisplay:10.37,2013-07-30 07:43:00,
2013-07-30 02:48:00,65.8,59.8,29.13,East,90,1.1,1.1,81,0.00,CLR,,0.00,WeatherDisplay:10.37,2013-07-30 07:48:00,
2013-07-30 02:53:00,65.3,59.3,29.14,East,90,1.1,0.0,81,0.00,CLR,,0.00,WeatherDisplay:10.37,2013-07-30 07:53:00,
2013-07-30 02:58:00,64.9,59.0,29.13,NE,45,2.3,2.3,81,0.00,CLR,,0.00,WeatherDisplay:10.37,2013-07-30 07:58:00,
2013-07-30 03:03:00,64.8,58.8,29.13,South,180,4.6,4.6,81,0.00,CLR,,0.00,WeatherDisplay:10.37,2013-07-30 08:03:00,
2013-07-30 03:08:00,64.6,58.6,29.13,NE,45,4.6,4.6,81,0.00,CLR,,0.00,WeatherDisplay:10.37,2013-07-30 08:08:00,
2013-07-30 03:13:00,64.6,58.6,29.13,SE,135,3.5,3.5,81,0.00,CLR,,0.00,WeatherDisplay:10.37,2013-07-30 08:13:00,
2013-07-30 03:18:00,64.6,58.6,29.13,East,90,5.8,5.8,81,0.00,CLR,,0.00,WeatherDisplay:10.37,2013-07-30 08:18:00,
2013-07-30 03:23:00,64.6,58.6,29.13,East,90,3.5,3.5,81,0.00,CLR,,0.00,WeatherDisplay:10.37,2013-07-30 08:23:00,
2013-07-30 03:28:00,64.6,59.0,29.13,South,180,3.5,3.5,82,0.00,CLR,,0.00,WeatherDisplay:10.37,2013-07-30 08:28:00,
2013-07-30 03:33:00,64.0,58.4,29.14,South,180,4.6,4.6,82,0.00,CLR,,0.00,WeatherDisplay:10.37,2013-07-30 08:33:00,
2013-07-30 03:38:00,64.6,59.3,29.14,West,270,5.8,5.8,83,0.00,CLR,,0.00,WeatherDisplay:10.37,2013-07-30 08:38:00,
2013-07-30 03:43:00,64.8,59.8,29.14,SE,135,6.9,6.9,84,0.00,CLR,,0.00,WeatherDisplay:10.37,2013-07-30 08:43:00,
2013-07-30 03:48:00,64.9,59.0,29.14,East,90,4.6,4.6,81,0.00,CLR,,0.00,WeatherDisplay:10.37,2013-07-30 08:48:00,
2013-07-30 03:53:00,66.2,60.2,29.14,ENE,68,3.5,0.0,81,0.00,CLR,,0.00,WeatherDisplay:10.37,2013-07-30 08:53:00,
2013-07-30 03:58:00,66.2,60.9,29.14,SE,135,5.8,0.0,83,0.00,CLR,,0.00,WeatherDisplay:10.37,2013-07-30 08:58:00,
2013-07-30 04:03:00,66.2,60.5,29.14,SE,135,5.8,5.8,82,0.00,CLR,,0.00,WeatherDisplay:10.37,2013-07-30 09:03:00,
2013-07-30 04:08:00,64.0,58.4,29.15,NE,45,5.8,5.8,82,0.00,CLR,,0.00,WeatherDisplay:10.37,2013-07-30 09:08:00,
2013-07-30 04:13:00,66.0,60.4,29.14,South,180,5.8,5.8,82,0.00,CLR,,0.00,WeatherDisplay:10.37,2013-07-30 09:13:00,
2013-07-30 04:18:00,66.2,60.5,29.14,ENE,68,4.6,4.6,82,0.00,CLR,,0.00,WeatherDisplay:10.37,2013-07-30 09:18:00,
2013-07-30 04:23:00,66.0,60.4,29.15,South,180,2.3,2.3,82,0.00,CLR,,0.00,WeatherDisplay:10.37,2013-07-30 09:23:00,
2013-07-30 04:28:00,65.7,60.0,29.14,SE,135,2.3,2.3,82,0.00,CLR,,0.00,WeatherDisplay:10.37,2013-07-30 09:28:00,
2013-07-30 04:33:00,65.7,60.7,29.15,SE,135,4.6,4.6,84,0.00,CLR,,0.00,WeatherDisplay:10.37,2013-07-30 09:33:00,
2013-07-30 04:38:00,66.0,61.0,29.15,SSE,158,6.9,6.9,84,0.00,CLR,,0.00,WeatherDisplay:10.37,2013-07-30 09:38:00,
2013-07-30 04:43:00,64.0,59.1,29.15,South,180,5.8,5.8,84,0.00,CLR,,0.00,WeatherDisplay:10.37,2013-07-30 09:43:00,
2013-07-30 04:48:00,64.8,59.5,29.15,SE,135,5.8,5.8,83,0.00,CLR,,0.00,WeatherDisplay:10.37,2013-07-30 09:48:00,
2013-07-30 04:53:00,64.8,59.5,29.15,South,180,6.9,6.9,83,0.00,CLR,,0.00,WeatherDisplay:10.37,2013-07-30 09:53:00,
2013-07-30 04:58:00,64.8,59.1,29.14,SSE,158,9.2,9.2,82,0.00,CLR,,0.00,WeatherDisplay:10.37,2013-07-30 09:58:00,
2013-07-30 05:03:00,64.8,59.8,29.15,South,180,5.8,5.8,84,0.00,CLR,,0.00,WeatherDisplay:10.37,2013-07-30 10:03:00,
2013-07-30 05:08:00,64.8,59.5,29.15,SE,135,8.1,8.1,83,0.00,CLR,,0.00,WeatherDisplay:10.37,2013-07-30 10:08:00,
2013-07-30 05:13:00,64.8,59.1,29.14,South,180,6.9,6.9,82,0.00,CLR,,0.00,WeatherDisplay:10.37,2013-07-30 10:13:00,
2013-07-30 05:18:00,64.8,59.5,29.14,SSE,158,6.9,6.9,83,0.00,CLR,,0.00,WeatherDisplay:10.37,2013-07-30 10:18:00,
2013-07-30 05:23:00,64.6,58.6,29.15,South,180,9.2,9.2,81,0.00,CLR,,0.00,WeatherDisplay:10.37,2013-07-30 10:23:00,
2013-07-30 05:28:00,64.8,59.5,29.15,SE,135,8.1,8.1,83,0.00,CLR,,0.00,WeatherDisplay:10.37,2013-07-30 10:28:00,
2013-07-30 05:33:00,64.8,59.1,29.15,South,180,9.2,9.2,82,0.00,CLR,,0.00,WeatherDisplay:10.37,2013-07-30 10:33:00,
2013-07-30 05:38:00,64.6,59.0,29.15,South,180,8.1,8.1,82,0.00,CLR,,0.00,WeatherDisplay:10.37,2013-07-30 10:38:00,
2013-07-30 05:43:00,64.6,59.0,29.15,South,180,6.9,6.9,82,0.00,CLR,,0.00,WeatherDisplay:10.37,2013-07-30 10:43:00,
2013-07-30 05:48:00,64.8,59.1,29.15,SE,135,8.1,8.1,82,0.00,CLR,,0.00,WeatherDisplay:10.37,2013-07-30 10:48:00,
2013-07-30 05:53:00,64.6,59.0,29.15,South,180,8.1,8.1,82,0.00,CLR,,0.00,WeatherDisplay:10.37,2013-07-30 10:53:00,
2013-07-30 05:58:00,64.6,58.3,29.15,South,180,8.1,8.1,80,0.00,CLR,,0.00,WeatherDisplay:10.37,2013-07-30 10:58:00,
2013-07-30 06:03:00,64.6,59.0,29.16,South,180,5.8,5.8,82,0.00,CLR,,0.00,WeatherDisplay:10.37,2013-07-30 11:03:00,
2013-07-30 06:08:00,64.2,58.3,29.16,SE,135,3.5,3.5,81,0.00,CLR,,0.00,WeatherDisplay:10.37,2013-07-30 11:08:00,
2013-07-30 06:13:00,65.8,59.8,29.16,ENE,68,2.3,2.3,81,0.00,CLR,,0.00,WeatherDisplay:10.37,2013-07-30 11:13:00,
2013-07-30 06:18:00,65.3,59.7,29.16,North,0,3.8,3.8,82,0.00,CLR,,0.00,WeatherDisplay:10.37,2013-07-30 11:18:00,
2013-07-30 06:23:00,64.9,59.7,29.16,North,4,2.3,2.3,83,0.00,CLR,,0.00,WeatherDisplay:10.37,2013-07-30 11:23:00,
2013-07-30 06:28:00,64.8,59.8,29.16,North,0,3.5,3.5,84,0.00,CLR,,0.00,WeatherDisplay:10.37,2013-07-30 11:28:00,
2013-07-30 06:33:00,62.6,57.7,29.16,NE,45,4.6,4.6,84,0.00,CLR,,0.00,WeatherDisplay:10.37,2013-07-30 11:33:00,
2013-07-30 06:38:00,62.4,57.5,29.16,NE,45,5.8,5.8,84,0.00,CLR,,0.00,WeatherDisplay:10.37,2013-07-30 11:38:00,
2013-07-30 06:43:00,62.2,57.7,29.16,East,90,3.5,3.5,85,0.00,CLR,,0.00,WeatherDisplay:10.37,2013-07-30 11:43:00,
2013-07-30 06:48:00,62.2,57.7,29.17,NE,45,3.5,3.5,85,0.00,CLR,,0.00,WeatherDisplay:10.37,2013-07-30 11:48:00,
2013-07-30 06:53:00,62.2,58.0,29.18,East,90,3.5,3.5,86,0.00,CLR,,0.00,WeatherDisplay:10.37,2013-07-30 11:53:00,
2013-07-30 06:58:00,62.2,58.0,29.17,East,90,3.5,3.5,86,0.00,CLR,,0.00,WeatherDisplay:10.37,2013-07-30 11:58:00,
2013-07-30 07:03:00,62.2,58.0,29.17,East,90,3.5,3.5,86,0.00,CLR,,0.00,WeatherDisplay:10.37,2013-07-30 12:03:00,
2013-07-30 07:08:00,62.4,57.8,29.17,East,90,1.1,0.0,85,0.00,CLR,,0.00,WeatherDisplay:10.37,2013-07-30 12:08:00,
2013-07-30 07:13:00,62.6,58.0,29.17,ENE,68,2.3,2.3,85,0.00,CLR,,0.00,WeatherDisplay:10.37,2013-07-30 12:13:00,
2013-07-30 07:18:00,62.8,58.2,29.17,South,180,2.3,0.0,85,0.00,CLR,,0.00,WeatherDisplay:10.37,2013-07-30 12:18:00,
2013-07-30 07:23:00,63.7,58.8,29.16,South,180,6.9,6.9,84,0.00,CLR,,0.00,WeatherDisplay:10.37,2013-07-30 12:23:00,
2013-07-30 07:28:00,66.2,60.2,29.17,WSW,248,8.1,8.1,81,0.00,CLR,,0.00,WeatherDisplay:10.37,2013-07-30 12:28:00,
2013-07-30 07:33:00,66.6,60.5,29.17,South,180,8.1,8.1,81,0.00,CLR,,0.00,WeatherDisplay:10.37,2013-07-30 12:33:00,
2013-07-30 07:38:00,66.6,60.2,29.17,South,180,5.8,5.8,80,0.00,CLR,,0.00,WeatherDisplay:10.37,2013-07-30 12:38:00,
2013-07-30 07:43:00,66.6,60.5,29.17,South,180,8.1,8.1,81,0.00,CLR,,0.00,WeatherDisplay:10.37,2013-07-30 12:43:00,
2013-07-30 07:48:00,66.7,60.0,29.17,South,180,6.9,6.9,79,0.00,CLR,,0.00,WeatherDisplay:10.37,2013-07-30 12:48:00,
2013-07-30 07:53:00,64.6,57.2,29.17,South,180,5.8,5.8,77,0.00,CLR,,0.00,WeatherDisplay:10.37,2013-07-30 12:53:00,
2013-07-30 07:58:00,64.9,57.9,29.17,South,180,3.5,3.5,78,0.00,CLR,,0.00,WeatherDisplay:10.37,2013-07-30 12:58:00,
2013-07-30 08:03:00,65.1,57.7,29.16,South,180,3.5,3.5,77,0.00,CLR,,0.00,WeatherDisplay:10.37,2013-07-30 13:03:00,
2013-07-30 08:08:00,65.5,58.1,29.17,East,90,3.5,3.5,77,0.00,CLR,,0.00,WeatherDisplay:10.37,2013-07-30 13:08:00,
2013-07-30 08:13:00,65.5,58.1,29.17,East,90,4.6,4.6,77,0.00,CLR,,0.00,WeatherDisplay:10.37,2013-07-30 13:13:00,
2013-07-30 08:18:00,64.9,58.3,29.17,NE,45,5.8,5.8,79,0.00,CLR,,0.00,WeatherDisplay:10.37,2013-07-30 13:18:00,
2013-07-30 08:23:00,66.4,60.4,29.17,ENE,68,4.5,4.5,81,0.00,CLR,,0.00,WeatherDisplay:10.37,2013-07-30 13:23:00,
2013-07-30 08:28:00,66.4,60.7,29.17,ENE,68,4.6,4.6,82,0.00,CLR,,0.00,WeatherDisplay:10.37,2013-07-30 13:28:00,
2013-07-30 08:33:00,66.6,60.5,29.17,ENE,68,3.5,3.5,81,0.00,CLR,,0.00,WeatherDisplay:10.37,2013-07-30 13:33:00,
2013-07-30 08:38:00,65.3,58.6,29.17,East,90,1.1,1.1,79,0.00,CLR,,0.00,WeatherDisplay:10.37,2013-07-30 13:38:00,
2013-07-30 08:43:00,66.0,59.0,29.17,East,90,3.5,3.5,78,0.00,CLR,,0.00,WeatherDisplay:10.37,2013-07-30 13:43:00,
2013-07-30 08:48:00,66.2,58.8,29.17,South,180,3.5,3.5,77,0.00,CLR,,0.00,WeatherDisplay:10.37,2013-07-30 13:48:00,
2013-07-30 08:53:00,65.8,59.1,29.17,East,90,4.6,4.6,79,0.00,CLR,,0.00,WeatherDisplay:10.37,2013-07-30 13:53:00,
2013-07-30 08:58:00,65.7,58.6,29.17,South,180,3.5,3.5,78,0.00,CLR,,0.00,WeatherDisplay:10.37,2013-07-30 13:58:00,
2013-07-30 09:03:00,65.5,58.8,29.17,SE,135,3.5,3.5,79,0.00,CLR,,0.00,WeatherDisplay:10.37,2013-07-30 14:03:00,
2013-07-30 09:08:00,65.5,58.8,29.17,NE,45,3.5,3.5,79,0.00,CLR,,0.00,WeatherDisplay:10.37,2013-07-30 14:08:00,
2013-07-30 09:13:00,65.3,58.6,29.17,NE,45,3.5,3.5,79,0.00,CLR,,0.00,WeatherDisplay:10.37,2013-07-30 14:13:00,
2013-07-30 09:18:00,65.3,59.0,29.17,SE,135,3.5,3.5,80,0.00,CLR,,0.00,WeatherDisplay:10.37,2013-07-30 14:18:00,
2013-07-30 09:23:00,64.4,58.4,29.18,NE,45,3.5,3.8,81,0.00,CLR,,0.00,WeatherDisplay:10.37,2013-07-30 14:23:00,
2013-07-30 09:28:00,66.6,60.9,29.17,ENE,68,5.8,5.8,82,0.00,CLR,,0.00,WeatherDisplay:10.37,2013-07-30 14:28:00,
2013-07-30 09:33:00,66.6,61.2,29.18,ENE,68,4.6,4.6,83,0.00,CLR,,0.00,WeatherDisplay:10.37,2013-07-30 14:33:00,
2013-07-30 09:38:00,66.6,61.6,29.17,ENE,68,5.8,5.8,84,0.00,CLR,,0.00,WeatherDisplay:10.37,2013-07-30 14:38:00,
2013-07-30 09:43:00,66.6,61.6,29.17,ENE,68,4.6,4.6,84,0.00,CLR,,0.00,WeatherDisplay:10.37,2013-07-30 14:43:00,
2013-07-30 09:48:00,66.7,61.4,29.17,North,3,3.5,3.5,83,0.00,CLR,,0.00,WeatherDisplay:10.37,2013-07-30 14:48:00,
2013-07-30 09:53:00,66.9,61.6,29.17,ENE,68,2.3,2.3,83,0.00,CLR,,0.00,WeatherDisplay:10.37,2013-07-30 14:53:00,
2013-07-30 09:58:00,65.3,59.7,29.17,East,90,4.6,4.6,82,0.00,CLR,,0.00,WeatherDisplay:10.37,2013-07-30 14:58:00,
2013-07-30 10:03:00,65.7,60.0,29.17,SE,135,2.3,0.0,82,0.00,CLR,,0.00,WeatherDisplay:10.37,2013-07-30 15:03:00,
2013-07-30 10:08:00,66.0,60.0,29.17,SE,135,2.3,2.3,81,0.00,CLR,,0.00,WeatherDisplay:10.37,2013-07-30 15:08:00,
2013-07-30 10:13:00,66.4,60.4,29.18,SE,135,2.3,2.3,81,0.00,CLR,,0.00,WeatherDisplay:10.37,2013-07-30 15:13:00,
2013-07-30 10:18:00,66.4,59.7,29.17,SSE,158,4.6,4.6,79,0.00,CLR,,0.00,WeatherDisplay:10.37,2013-07-30 15:18:00,
2013-07-30 10:23:00,66.2,59.5,29.18,SW,225,6.9,6.9,79,0.00,CLR,,0.00,WeatherDisplay:10.37,2013-07-30 15:23:00,
2013-07-30 10:28:00,66.0,60.0,29.17,SW,225,8.1,8.1,81,0.00,CLR,,0.00,WeatherDisplay:10.37,2013-07-30 15:28:00,
2013-07-30 10:33:00,66.4,60.4,29.17,South,180,5.8,5.8,81,0.00,CLR,,0.00,WeatherDisplay:10.37,2013-07-30 15:33:00,
2013-07-30 10:38:00,66.2,59.1,29.17,South,180,6.9,6.9,78,0.00,CLR,,0.00,WeatherDisplay:10.37,2013-07-30 15:38:00,
2013-07-30 10:43:00,66.6,59.8,29.17,South,180,6.9,6.9,79,0.00,CLR,,0.00,WeatherDisplay:10.37,2013-07-30 15:43:00,
2013-07-30 10:48:00,66.7,58.9,29.16,SE,135,5.8,5.8,76,0.00,CLR,,0.00,WeatherDisplay:10.37,2013-07-30 15:48:00,
2013-07-30 10:53:00,67.1,59.3,29.16,South,180,8.1,8.1,76,0.00,CLR,,0.00,WeatherDisplay:10.37,2013-07-30 15:53:00,
2013-07-30 10:58:00,67.3,59.5,29.15,SE,135,8.1,8.1,76,0.00,CLR,,0.00,WeatherDisplay:10.37,2013-07-30 15:58:00,
2013-07-30 11:03:00,67.5,60.0,29.16,SW,225,8.1,8.1,77,0.00,CLR,,0.00,WeatherDisplay:10.37,2013-07-30 16:03:00,
2013-07-30 11:08:00,67.5,59.6,29.16,SE,135,6.9,6.9,76,0.00,CLR,,0.00,WeatherDisplay:10.37,2013-07-30 16:08:00,
2013-07-30 11:13:00,68.4,59.7,29.16,South,180,5.8,5.8,74,0.00,CLR,,0.00,WeatherDisplay:10.37,2013-07-30 16:13:00,
2013-07-30 11:18:00,68.9,60.3,29.16,South,180,5.8,5.8,74,0.00,CLR,,0.00,WeatherDisplay:10.37,2013-07-30 16:18:00,
2013-07-30 11:23:00,68.9,59.9,29.15,South,180,6.9,6.9,73,0.00,CLR,,0.00,WeatherDisplay:10.37,2013-07-30 16:23:00,
2013-07-30 11:28:00,69.3,60.2,29.16,South,180,3.5,3.5,73,0.00,CLR,,0.00,WeatherDisplay:10.37,2013-07-30 16:28:00,
2013-07-30 11:33:00,68.9,59.9,29.16,SE,135,5.8,5.8,73,0.00,CLR,,0.00,WeatherDisplay:10.37,2013-07-30 16:33:00,
2013-07-30 11:38:00,69.3,60.2,29.16,SE,135,5.8,5.8,73,0.00,CLR,,0.00,WeatherDisplay:10.37,2013-07-30 16:38:00,
2013-07-30 11:43:00,69.4,60.4,29.16,South,180,4.6,4.6,73,0.00,CLR,,0.00,WeatherDisplay:10.37,2013-07-30 16:43:00,
2013-07-30 11:48:00,68.9,60.3,29.15,SSE,158,6.9,6.9,74,0.00,CLR,,0.00,WeatherDisplay:10.37,2013-07-30 16:48:00,
2013-07-30 11:53:00,68.5,60.7,29.15,South,180,5.8,5.8,76,0.00,CLR,,0.00,WeatherDisplay:10.37,2013-07-30 16:53:00,
2013-07-30 11:58:00,68.7,60.8,29.15,SW,225,6.9,6.9,76,0.00,CLR,,0.00,WeatherDisplay:10.37,2013-07-30 16:58:00,
2013-07-30 12:03:00,69.1,60.8,29.15,SW,225,6.9,6.9,75,0.00,CLR,,0.00,WeatherDisplay:10.37,2013-07-30 17:03:00,
2013-07-30 12:08:00,68.9,61.0,29.14,West,270,8.1,8.1,76,0.00,CLR,,0.00,WeatherDisplay:10.37,2013-07-30 17:08:00,
2013-07-30 12:13:00,69.1,60.8,29.15,South,180,10.4,10.4,75,0.00,CLR,,0.00,WeatherDisplay:10.37,2013-07-30 17:13:00,
2013-07-30 12:18:00,69.1,60.4,29.15,South,180,10.4,10.4,74,0.00,CLR,,0.00,WeatherDisplay:10.37,2013-07-30 17:18:00,
2013-07-30 12:23:00,69.1,60.4,29.15,South,180,9.2,9.2,74,0.00,CLR,,0.00,WeatherDisplay:10.37,2013-07-30 17:23:00,
2013-07-30 12:28:00,69.1,60.4,29.15,South,180,9.2,9.2,74,0.00,CLR,,0.00,WeatherDisplay:10.37,2013-07-30 17:28:00,
2013-07-30 12:33:00,69.3,60.6,29.15,South,180,9.2,9.2,74,0.00,CLR,,0.00,WeatherDisplay:10.37,2013-07-30 17:33:00,
2013-07-30 12:38:00,69.1,60.4,29.15,South,180,6.9,6.9,74,0.00,CLR,,0.00,WeatherDisplay:10.37,2013-07-30 17:38:00,
2013-07-30 12:43:00,69.4,61.5,29.14,South,180,8.1,8.1,76,0.00,CLR,,0.00,WeatherDisplay:10.37,2013-07-30 17:43:00,
2013-07-30 12:48:00,69.6,61.3,29.14,South,180,8.1,8.1,75,0.00,CLR,,0.00,WeatherDisplay:10.37,2013-07-30 17:48:00,
2013-07-30 12:53:00,70.3,61.7,29.13,South,180,8.1,8.1,74,0.00,CLR,,0.00,WeatherDisplay:10.37,2013-07-30 17:53:00,
2013-07-30 12:58:00,70.9,61.4,29.13,South,180,10.4,10.4,72,0.00,CLR,,0.00,WeatherDisplay:10.37,2013-07-30 17:58:00,
2013-07-30 13:03:00,71.4,61.5,29.13,South,180,9.2,9.2,71,0.00,CLR,,0.00,WeatherDisplay:10.37,2013-07-30 18:03:00,
2013-07-30 13:08:00,71.1,60.8,29.13,South,180,9.2,9.2,70,0.00,CLR,,0.00,WeatherDisplay:10.37,2013-07-30 18:08:00,
2013-07-30 13:13:00,71.1,61.2,29.13,South,180,10.4,10.4,71,0.00,CLR,,0.00,WeatherDisplay:10.37,2013-07-30 18:13:00,
2013-07-30 13:18:00,71.1,61.6,29.12,South,180,9.2,9.2,72,0.00,CLR,,0.00,WeatherDisplay:10.37,2013-07-30 18:18:00,
2013-07-30 13:23:00,71.4,61.9,29.13,South,180,9.2,9.2,72,0.00,CLR,,0.00,WeatherDisplay:10.37,2013-07-30 18:23:00,
2013-07-30 13:28:00,71.4,61.9,29.12,South,180,9.2,9.2,72,0.00,CLR,,0.00,WeatherDisplay:10.37,2013-07-30 18:28:00,
2013-07-30 13:33:00,71.8,62.3,29.12,South,180,10.4,10.4,72,0.00,CLR,,0.00,WeatherDisplay:10.37,2013-07-30 18:33:00,
2013-07-30 13:38:00,72.1,62.2,29.12,South,180,8.1,8.1,71,0.00,CLR,,0.00,WeatherDisplay:10.37,2013-07-30 18:38:00,
2013-07-30 13:43:00,72.1,61.8,29.12,SE,135,6.9,6.9,70,0.00,CLR,,0.00,WeatherDisplay:10.37,2013-07-30 18:43:00,
2013-07-30 13:48:00,72.1,62.2,29.12,SW,225,8.1,8.1,71,0.00,CLR,,0.00,WeatherDisplay:10.37,2013-07-30 18:48:00,
2013-07-30 13:53:00,72.3,62.0,29.12,South,180,10.7,10.7,70,0.00,CLR,,0.00,WeatherDisplay:10.37,2013-07-30 18:53:00,
2013-07-30 13:58:00,71.8,61.9,29.12,South,180,11.5,11.5,71,0.00,CLR,,0.00,WeatherDisplay:10.37,2013-07-30 18:58:00,
2013-07-30 14:03:00,72.5,62.6,29.12,South,180,4.6,4.6,71,0.00,CLR,,0.00,WeatherDisplay:10.37,2013-07-30 19:03:00,
2013-07-30 14:08:00,73.4,62.6,29.11,SW,225,5.8,5.8,69,0.00,CLR,,0.00,WeatherDisplay:10.37,2013-07-30 19:08:00,
2013-07-30 14:13:00,73.8,63.0,29.11,SE,135,3.5,4.5,69,0.00,CLR,,0.00,WeatherDisplay:10.37,2013-07-30 19:13:00,
2013-07-30 14:18:00,74.3,62.6,29.11,SW,225,8.1,8.1,67,0.00,CLR,,0.00,WeatherDisplay:10.37,2013-07-30 19:18:00,
2013-07-30 14:23:00,74.1,62.0,29.11,South,180,8.1,8.1,66,0.00,CLR,,0.00,WeatherDisplay:10.37,2013-07-30 19:23:00,
2013-07-30 14:28:00,73.6,62.8,29.11,SW,225,8.1,8.1,69,0.00,CLR,,0.00,WeatherDisplay:10.37,2013-07-30 19:28:00,
2013-07-30 14:33:00,73.9,63.1,29.11,South,180,8.1,8.1,69,0.00,CLR,,0.00,WeatherDisplay:10.37,2013-07-30 19:33:00,
2013-07-30 14:39:00,74.5,63.2,29.10,South,180,6.0,6.0,68,0.00,CLR,,0.00,WeatherDisplay:10.37,2013-07-30 19:39:00,
2013-07-30 14:44:00,74.3,62.6,29.10,South,180,8.1,8.3,67,0.00,CLR,,0.00,WeatherDisplay:10.37,2013-07-30 19:44:00,
2013-07-30 14:49:00,73.9,61.4,29.10,South,180,12.7,12.7,65,0.00,CLR,,0.00,WeatherDisplay:10.37,2013-07-30 19:49:00,
2013-07-30 14:54:00,74.3,61.8,29.11,SW,225,11.5,11.5,65,0.00,CLR,,0.00,WeatherDisplay:10.37,2013-07-30 19:54:00,
2013-07-30 14:59:00,74.1,61.6,29.10,SW,225,6.9,6.9,65,0.00,CLR,,0.00,WeatherDisplay:10.37,2013-07-30 19:59:00,
2013-07-30 15:04:00,73.9,61.0,29.10,SW,225,10.4,10.4,64,0.00,CLR,,0.00,WeatherDisplay:10.37,2013-07-30 20:04:00,
2013-07-30 15:09:00,73.6,61.1,29.10,SW,225,12.7,12.7,65,0.00,CLR,,0.00,WeatherDisplay:10.37,2013-07-30 20:09:00,
2013-07-30 15:14:00,73.6,61.1,29.10,North,8,8.1,8.1,65,0.00,CLR,,0.00,WeatherDisplay:10.37,2013-07-30 20:14:00,
2013-07-30 15:19:00,73.6,61.1,29.10,South,180,10.4,10.4,65,0.00,CLR,,0.00,WeatherDisplay:10.37,2013-07-30 20:19:00,
2013-07-30 15:24:00,73.6,61.1,29.10,SW,225,10.4,10.4,65,0.00,CLR,,0.00,WeatherDisplay:10.37,2013-07-30 20:24:00,
2013-07-30 15:29:00,73.6,61.9,29.10,South,180,10.4,10.4,67,0.00,CLR,,0.00,WeatherDisplay:10.37,2013-07-30 20:29:00,
2013-07-30 15:34:00,73.2,61.6,29.10,South,180,10.4,10.4,67,0.00,CLR,,0.00,WeatherDisplay:10.37,2013-07-30 20:34:00,
2013-07-30 15:39:00,73.6,62.4,29.10,SW,225,8.1,8.1,68,0.00,CLR,,0.00,WeatherDisplay:10.37,2013-07-30 20:39:00,
2013-07-30 15:44:00,73.4,61.3,29.10,SW,225,8.1,8.1,66,0.00,CLR,,0.00,WeatherDisplay:10.37,2013-07-30 20:44:00,
2013-07-30 15:49:00,73.4,62.6,29.10,South,180,8.1,8.1,69,0.00,CLR,,0.00,WeatherDisplay:10.37,2013-07-30 20:49:00,
2013-07-30 15:54:00,73.2,61.2,29.10,SW,225,10.4,10.4,66,0.00,CLR,,0.00,WeatherDisplay:10.37,2013-07-30 20:54:00,
2013-07-30 15:59:00,73.2,61.6,29.10,South,180,10.4,10.4,67,0.00,CLR,,0.00,WeatherDisplay:10.37,2013-07-30 20:59:00,
2013-07-30 16:04:00,73.2,60.7,29.10,SW,225,11.5,11.5,65,0.00,CLR,,0.00,WeatherDisplay:10.37,2013-07-30 21:04:00,
2013-07-30 16:09:00,73.4,61.8,29.10,South,180,8.1,8.1,67,0.00,CLR,,0.00,WeatherDisplay:10.37,2013-07-30 21:09:00,
2013-07-30 16:14:00,73.6,62.4,29.10,SW,225,9.2,9.2,68,0.00,CLR,,0.00,WeatherDisplay:10.37,2013-07-30 21:14:00,
2013-07-30 16:19:00,73.6,62.4,29.10,South,180,12.7,12.7,68,0.00,CLR,,0.00,WeatherDisplay:10.37,2013-07-30 21:19:00,
2013-07-30 16:24:00,73.6,61.9,29.10,South,180,8.1,8.1,67,0.00,CLR,,0.00,WeatherDisplay:10.37,2013-07-30 21:24:00,
2013-07-30 16:29:00,73.4,60.9,29.10,South,180,8.1,8.1,65,0.00,CLR,,0.00,WeatherDisplay:10.37,2013-07-30 21:29:00,
2013-07-30 16:34:00,73.2,61.2,29.10,South,180,9.2,9.2,66,0.00,CLR,,0.00,WeatherDisplay:10.37,2013-07-30 21:34:00,
2013-07-30 16:39:00,73.6,61.9,29.10,SW,225,5.8,5.8,67,0.00,CLR,,0.00,WeatherDisplay:10.37,2013-07-30 21:39:00,
2013-07-30 16:44:00,73.4,61.8,29.10,South,180,8.1,8.1,67,0.00,CLR,,0.00,WeatherDisplay:10.37,2013-07-30 21:44:00,
2013-07-30 16:49:00,73.6,62.4,29.10,SW,225,8.1,8.1,68,0.00,CLR,,0.00,WeatherDisplay:10.37,2013-07-30 21:49:00,
2013-07-30 16:54:00,73.4,61.3,29.10,SW,225,9.8,9.8,66,0.00,CLR,,0.00,WeatherDisplay:10.37,2013-07-30 21:54:00,
2013-07-30 16:59:00,73.8,62.5,29.10,SW,225,5.8,5.8,68,0.00,CLR,,0.00,WeatherDisplay:10.37,2013-07-30 21:59:00,
2013-07-30 17:04:00,74.3,61.8,29.10,SW,225,6.9,6.9,65,0.00,CLR,,0.00,WeatherDisplay:10.37,2013-07-30 22:04:00,
2013-07-30 17:09:00,74.7,62.5,29.10,South,180,8.1,8.1,66,0.00,CLR,,0.00,WeatherDisplay:10.37,2013-07-30 22:09:00,
2013-07-30 17:14:00,75.0,62.5,29.09,South,180,6.9,6.9,65,0.00,CLR,,0.00,WeatherDisplay:10.37,2013-07-30 22:14:00,
2013-07-30 17:19:00,74.5,62.4,29.10,South,180,8.1,8.1,66,0.00,CLR,,0.00,WeatherDisplay:10.37,2013-07-30 22:19:00,
2013-07-30 17:24:00,73.9,62.3,29.09,South,180,6.9,6.9,67,0.00,CLR,,0.00,WeatherDisplay:10.37,2013-07-30 22:24:00,
2013-07-30 17:29:00,74.1,62.0,29.09,South,180,6.9,6.9,66,0.00,CLR,,0.00,WeatherDisplay:10.37,2013-07-30 22:29:00,
2013-07-30 17:34:00,73.8,62.1,29.09,South,180,8.1,8.1,67,0.00,CLR,,0.00,WeatherDisplay:10.37,2013-07-30 22:34:00,
2013-07-30 17:39:00,73.6,61.9,29.09,SW,225,8.1,8.1,67,0.00,CLR,,0.00,WeatherDisplay:10.37,2013-07-30 22:39:00,
2013-07-30 17:44:00,74.1,62.5,29.09,South,180,5.8,5.8,67,0.00,CLR,,0.00,WeatherDisplay:10.37,2013-07-30 22:44:00,
2013-07-30 17:49:00,73.9,62.3,29.10,South,180,5.8,5.8,67,0.00,CLR,,0.00,WeatherDisplay:10.37,2013-07-30 22:49:00,
2013-07-30 17:54:00,73.6,62.4,29.09,South,180,8.1,8.1,68,0.00,CLR,,0.00,WeatherDisplay:10.37,2013-07-30 22:54:00,
2013-07-30 17:59:00,73.6,62.4,29.09,SW,225,6.9,6.9,68,0.00,CLR,,0.00,WeatherDisplay:10.37,2013-07-30 22:59:00,
2013-07-30 18:04:00,73.8,62.5,29.09,South,180,5.8,5.8,68,0.00,CLR,,0.00,WeatherDisplay:10.37,2013-07-30 23:04:00,
2013-07-30 18:09:00,73.9,62.3,29.09,South,180,6.9,6.9,67,0.00,CLR,,0.00,WeatherDisplay:10.37,2013-07-30 23:09:00,
2013-07-30 18:14:00,74.1,62.5,29.09,SW,225,8.1,8.1,67,0.00,CLR,,0.00,WeatherDisplay:10.37,2013-07-30 23:14:00,
2013-07-30 18:19:00,74.3,62.6,29.09,SW,225,8.1,8.1,67,0.00,CLR,,0.00,WeatherDisplay:10.37,2013-07-30 23:19:00,
2013-07-30 18:24:00,73.9,62.7,29.09,SW,225,5.8,5.8,68,0.00,CLR,,0.00,WeatherDisplay:10.37,2013-07-30 23:24:00,
2013-07-30 18:29:00,73.9,62.3,29.09,South,180,8.1,8.1,67,0.00,CLR,,0.00,WeatherDisplay:10.37,2013-07-30 23:29:00,
2013-07-30 18:34:00,73.8,63.0,29.09,South,180,6.9,6.9,69,0.00,CLR,,0.00,WeatherDisplay:10.37,2013-07-30 23:34:00,
2013-07-30 18:39:00,74.1,62.9,29.09,South,180,5.8,5.8,68,0.00,CLR,,0.00,WeatherDisplay:10.37,2013-07-30 23:39:00,
2013-07-30 18:44:00,73.8,63.0,29.09,SW,225,6.9,6.9,69,0.00,CLR,,0.00,WeatherDisplay:10.37,2013-07-30 23:44:00,
2013-07-30 18:49:00,73.8,63.0,29.09,SW,225,6.9,6.9,69,0.00,CLR,,0.00,WeatherDisplay:10.37,2013-07-30 23:49:00,
2013-07-30 18:54:00,73.6,62.8,29.09,South,180,8.1,8.1,69,0.00,CLR,,0.00,WeatherDisplay:10.37,2013-07-30 23:54:00,
2013-07-30 18:59:00,73.6,62.4,29.09,SW,225,8.1,8.1,68,0.00,CLR,,0.00,WeatherDisplay:10.37,2013-07-30 23:59:00,
2013-07-30 19:04:00,73.6,62.8,29.10,SW,225,5.8,5.8,69,0.00,CLR,,0.00,WeatherDisplay:10.37,2013-07-31 00:04:00,
2013-07-30 19:09:00,73.4,62.6,29.09,SW,225,8.1,8.1,69,0.00,CLR,,0.00,WeatherDisplay:10.37,2013-07-31 00:09:00,
2013-07-30 19:14:00,73.4,63.4,29.09,South,180,4.6,4.6,71,0.00,CLR,,0.00,WeatherDisplay:10.37,2013-07-31 00:14:00,
2013-07-30 19:19:00,73.8,63.4,29.10,West,270,3.5,3.5,70,0.00,CLR,,0.00,WeatherDisplay:10.37,2013-07-31 00:19:00,
2013-07-30 19:24:00,74.5,64.1,29.09,East,90,2.3,2.3,70,0.00,CLR,,0.00,WeatherDisplay:10.37,2013-07-31 00:24:00,
2013-07-30 19:29:00,76.1,63.9,29.09,North,0,1.1,0.0,66,0.00,CLR,,0.00,WeatherDisplay:10.37,2013-07-31 00:29:00,
2013-07-30 19:34:00,77.0,64.3,29.09,NW,315,1.1,0.0,65,0.00,CLR,,0.00,WeatherDisplay:10.37,2013-07-31 00:34:00,
2013-07-30 19:39:00,77.2,64.1,29.09,SE,135,1.1,0.0,64,0.00,CLR,,0.00,WeatherDisplay:10.37,2013-07-31 00:39:00,
2013-07-30 19:44:00,77.7,64.1,29.09,South,180,1.1,0.0,63,0.00,CLR,,0.00,WeatherDisplay:10.37,2013-07-31 00:44:00,
2013-07-30 19:49:00,77.5,63.9,29.09,NW,315,1.1,0.0,63,0.00,CLR,,0.00,WeatherDisplay:10.37,2013-07-31 00:49:00,
2013-07-30 19:54:00,77.0,63.9,29.09,SE,135,2.3,2.3,64,0.00,CLR,,0.00,WeatherDisplay:10.37,2013-07-31 00:54:00,
2013-07-30 19:59:00,75.9,63.3,29.09,SE,135,2.3,0.0,65,0.00,CLR,,0.00,WeatherDisplay:10.37,2013-07-31 00:59:00,
2013-07-30 20:04:00,77.0,64.3,29.09,East,90,1.6,0.0,65,0.00,CLR,,0.00,WeatherDisplay:10.37,2013-07-31 01:04:00,
2013-07-30 20:09:00,77.4,64.2,29.09,West,270,1.1,0.0,64,0.00,CLR,,0.00,WeatherDisplay:10.37,2013-07-31 01:09:00,
2013-07-30 20:14:00,76.6,63.5,29.09,SW,225,2.3,2.3,64,0.00,CLR,,0.00,WeatherDisplay:10.37,2013-07-31 01:14:00,
2013-07-30 20:19:00,75.2,63.5,29.09,SW,225,2.3,2.3,67,0.00,CLR,,0.00,WeatherDisplay:10.37,2013-07-31 01:19:00,
2013-07-30 20:24:00,74.7,63.8,29.09,SW,225,2.3,2.3,69,0.00,CLR,,0.00,WeatherDisplay:10.37,2013-07-31 01:24:00,
2013-07-30 20:29:00,75.0,64.2,29.10,South,180,1.1,1.1,69,0.00,CLR,,0.00,WeatherDisplay:10.37,2013-07-31 01:29:00,
2013-07-30 20:34:00,75.7,64.4,29.10,SW,225,1.1,0.0,68,0.00,CLR,,0.00,WeatherDisplay:10.37,2013-07-31 01:34:00,
2013-07-30 20:39:00,76.5,64.3,29.10,North,0,1.1,0.0,66,0.00,CLR,,0.00,WeatherDisplay:10.37,2013-07-31 01:39:00,
2013-07-30 20:44:00,76.5,64.3,29.10,SW,225,1.1,0.0,66,0.00,CLR,,0.00,WeatherDisplay:10.37,2013-07-31 01:44:00,
2013-07-30 20:49:00,76.6,64.4,29.10,SW,225,2.3,0.0,66,0.00,CLR,,0.00,WeatherDisplay:10.37,2013-07-31 01:49:00,
2013-07-30 20:54:00,77.0,64.8,29.10,SW,225,2.3,0.0,66,0.00,CLR,,0.00,WeatherDisplay:10.37,2013-07-31 01:54:00,
2013-07-30 20:59:00,76.8,64.2,29.11,SE,135,1.1,0.0,65,0.00,CLR,,0.00,WeatherDisplay:10.37,2013-07-31 01:59:00,
2013-07-30 21:04:00,76.8,64.6,29.10,NE,45,1.1,0.0,66,0.00,CLR,,0.00,WeatherDisplay:10.37,2013-07-31 02:04:00,
2013-07-30 21:09:00,76.3,64.5,29.10,SW,225,1.1,0.0,67,0.00,CLR,,0.00,WeatherDisplay:10.37,2013-07-31 02:09:00,
2013-07-30 21:14:00,76.3,64.5,29.10,NE,45,1.1,1.1,67,0.00,CLR,,0.00,WeatherDisplay:10.37,2013-07-31 02:14:00,
2013-07-30 21:19:00,76.5,64.7,29.10,East,90,1.1,1.1,67,0.00,CLR,,0.00,WeatherDisplay:10.37,2013-07-31 02:19:00,
2013-07-30 21:24:00,76.6,64.9,29.10,North,0,1.1,0.0,67,0.00,CLR,,0.00,WeatherDisplay:10.37,2013-07-31 02:24:00,
2013-07-30 21:29:00,76.8,64.6,29.10,South,180,2.3,0.0,66,0.00,CLR,,0.00,WeatherDisplay:10.37,2013-07-31 02:29:00,
2013-07-30 21:34:00,76.6,64.4,29.10,South,180,2.3,0.0,66,0.00,CLR,,0.00,WeatherDisplay:10.37,2013-07-31 02:34:00,
2013-07-30 21:39:00,76.6,64.4,29.10,SW,225,1.6,0.0,66,0.00,CLR,,0.00,WeatherDisplay:10.37,2013-07-31 02:39:00,
2013-07-30 21:44:00,75.9,64.2,29.10,North,0,1.1,1.1,67,0.00,CLR,,0.00,WeatherDisplay:10.37,2013-07-31 02:44:00,
2013-07-30 21:49:00,75.7,64.4,29.10,North,0,1.1,0.0,68,0.00,CLR,,0.00,WeatherDisplay:10.37,2013-07-31 02:49:00,
2013-07-30 21:54:00,75.4,64.5,29.10,North,0,2.3,2.3,69,0.00,CLR,,0.00,WeatherDisplay:10.37,2013-07-31 02:54:00,
2013-07-30 21:59:00,74.8,64.4,29.10,North,0,1.1,0.0,70,0.00,CLR,,0.00,WeatherDisplay:10.37,2013-07-31 02:59:00,
2013-07-30 22:04:00,74.7,64.6,29.10,NE,45,2.2,2.2,71,0.00,CLR,,0.00,WeatherDisplay:10.37,2013-07-31 03:04:00,
2013-07-30 22:09:00,74.3,63.9,29.10,NE,45,2.3,0.0,70,0.00,CLR,,0.00,WeatherDisplay:10.37,2013-07-31 03:09:00,
2013-07-30 22:14:00,73.0,63.5,29.10,North,0,3.5,3.5,72,0.00,CLR,,0.00,WeatherDisplay:10.37,2013-07-31 03:14:00,
2013-07-30 22:19:00,72.3,63.6,29.10,NW,315,2.3,2.3,74,0.00,CLR,,0.00,WeatherDisplay:10.37,2013-07-31 03:19:00,
2013-07-30 22:24:00,71.2,63.7,29.11,NW,315,4.6,4.6,77,0.00,CLR,,0.00,WeatherDisplay:10.37,2013-07-31 03:24:00,
2013-07-30 22:29:00,70.5,63.7,29.10,NE,45,3.5,3.5,79,0.00,CLR,,0.00,WeatherDisplay:10.37,2013-07-31 03:29:00,
2013-07-30 22:34:00,70.2,63.7,29.11,North,0,3.5,3.5,80,0.00,CLR,,0.00,WeatherDisplay:10.37,2013-07-31 03:34:00,
2013-07-30 22:39:00,70.0,63.5,29.11,NW,315,3.5,3.5,80,0.00,CLR,,0.00,WeatherDisplay:10.37,2013-07-31 03:39:00,
2013-07-30 22:44:00,69.6,63.5,29.10,NE,45,3.5,3.5,81,0.00,CLR,,0.00,WeatherDisplay:10.37,2013-07-31 03:44:00,
2013-07-30 22:49:00,69.6,63.9,29.10,North,0,2.3,2.3,82,0.00,CLR,,0.00,WeatherDisplay:10.37,2013-07-31 03:49:00,
2013-07-30 22:54:00,69.3,63.5,29.10,NW,315,3.5,3.5,82,0.00,CLR,,0.00,WeatherDisplay:10.37,2013-07-31 03:54:00,
2013-07-30 22:59:00,69.3,63.9,29.10,North,0,3.5,3.5,83,0.00,CLR,,0.00,WeatherDisplay:10.37,2013-07-31 03:59:00,
2013-07-30 23:01:00,69.3,63.9,29.10,North,0,4.5,4.5,83,0.00,CLR,,0.00,WeatherDisplay:10.37,2013-07-31 04:01:00,
2013-07-30 23:02:00,69.1,63.7,29.10,North,0,4.6,4.6,83,0.00,CLR,,0.00,WeatherDisplay:10.37,2013-07-31 04:02:00,
2013-07-30 23:07:00,69.1,63.7,29.10,NW,315,3.5,3.5,83,0.00,CLR,,0.00,WeatherDisplay:10.37,2013-07-31 04:07:00,
2013-07-30 23:12:00,68.9,63.9,29.10,North,0,3.5,3.5,84,0.00,CLR,,0.00,WeatherDisplay:10.37,2013-07-31 04:12:00,
2013-07-30 23:17:00,68.7,63.7,29.09,North,0,1.1,0.0,84,0.00,CLR,,0.00,WeatherDisplay:10.37,2013-07-31 04:17:00,
2013-07-30 23:22:00,68.7,63.7,29.10,North,0,1.1,1.1,84,0.00,CLR,,0.00,WeatherDisplay:10.37,2013-07-31 04:22:00,
2013-07-30 23:27:00,68.5,63.8,29.10,North,0,3.5,3.5,85,0.00,CLR,,0.00,WeatherDisplay:10.37,2013-07-31 04:27:00,
2013-07-30 23:32:00,68.4,64.0,29.10,NW,315,3.5,3.5,86,0.00,CLR,,0.00,WeatherDisplay:10.37,2013-07-31 04:32:00,
2013-07-30 23:37:00,68.4,64.0,29.10,NW,315,5.8,5.8,86,0.00,CLR,,0.00,WeatherDisplay:10.37,2013-07-31 04:37:00,
2013-07-30 23:42:00,68.2,64.2,29.10,NW,315,3.5,3.5,87,0.00,CLR,,0.00,WeatherDisplay:10.37,2013-07-31 04:42:00,
2013-07-30 23:47:00,68.2,64.2,29.10,North,0,3.5,3.5,87,0.00,CLR,,0.00,WeatherDisplay:10.37,2013-07-31 04:47:00,
2013-07-30 23:52:00,68.0,64.3,29.09,NE,45,6.9,6.9,88,0.00,CLR,,0.00,WeatherDisplay:10.37,2013-07-31 04:52:00,
2013-07-30 23:57:00,68.0,64.3,29.09,North,0,2.3,2.3,88,0.00,CLR,,0.00,WeatherDisplay:10.37,2013-07-31 04:57:00,